SCP
0 0 0 0 0 0 0 0 0 0 0 0 0 0 0 0 0 0 0 0 0 0 0 0 0 0 0 0 0 0 0 0 0 0 0 0 0 0
0 0 0 0 0 0 0 0 0 0 0 0 0 0 0 0 0 0 0 0 0 0 0 0 0 0 0 0 0 0 0 0 0 0 0 0 0 0
0 0 0 0 0 0 0 0 0 0 0 0 0 0 0 0 0 0 0 0 0 0 0 0 0 0 0 0 0 0 0 0 0 0 0 0 0 0
0 0 0 0 0 0 0 0 0 0 0 0 0 0 0 0 0 0 0 0 0 0 0 0 0 0 0 0 0 0 0 0 0 0 0 0 0 0
0 0 0 0 0 0 0 0 0 0 0 0 0 0 0 0 0 0 0 0 0 0 0 0 0 0 0 0 0 0 0 0 0 0 0 0 0 0
0 0 0 0 0 0 0 0 0 0 0 0 0 0 0 0 0 0 0 0 0 0 0 0 0 0 0 0 0 0 0 0 0 0 0 0 0 0
0 0 0 0 0 0 0 0 0 0 0 0 0 0 0 0 0 0 0 0 0 0 0 0 0 0 0 0 0 0 0 0 0 0 0 0 0 0
0 0 0 0 0 0 0 0 0 0 0 0 0 0 0 0 0 0 0 0 0 0 0 0 0 0 0 0 0 0 0 0 0 0 0 0 0 0
0 0 0 0 0 0 0 0 0 0 0 0 0 0 0 0 0 0 0 0 0 0 0 0 0 0 0 0 0 0 0 0 0 0 0 0 0 0
0 0 0 0 0 0 0 0 0 0 0 0 0 0 0 0 0 0 0 0 0 0 0 0 0 0 0 0 0 0 0 0 0 0 0 0 0 0
0 0 0 0 0 0 0 0 0 0 0 0 0 0 0 0 0 0 0 0 0 0 0 0 0 0 0 0 0 0 0 0 0 0 0 0 0 0
0 0 0 0 0 0 0 0 0 0 0 0 0 0 0 0 0 0 0 0 0 0 0 0 0 0 0 0 0 0 0 0 0 0 0 0 0 0
0 0 0 0 0 0 0 0 0 0 0 0 0 0 0 0 0 0 0 0 0 0 0 0 0 0 0 0 0 0 0 0 0 0 0 0 0 0
0 0 0 0 0 0 0 0 0 0 0 0 0 0 0 0 0 0 0 0 0 0 0 0 0 0 0 0 0 0 0 0 0 0 0 0 0 0
0 0 0 0 0 0 0 0 0 0 0 0 0 0 0 0 0 0 0 0 0 0 0 0 0 0 0 0 0 0 0 0 0 0 0 0 0 0
0 0 0 0 0 0 0 0 0 0 0 0 0 0 0 0 0 0 0 0 0 0 0 0 0 0 0 0 0 0 0 0 0 0 0 0 0 0
0 0 0 0 0 0 0 0 0 0 0 0 0 0 0 0 0 0 0 0 0 0 0 0 0 0 0 0 0 0 0 0 0 0 0 0 0 0
0 0 0 0 0 0 0 0 0 0 0 0 0 0 0 0 0 0 0 0 0 0 0 0 0 0 0 0 0 0 0 0 0 0 0 0 0 0
0 0 0 0 0 0 0 0 0 0 0 0 0 0 0 0 0 0 0 0 0 0 0 0 0 0 0 0 0 0 0 0 0 0 0 0 0 0
0 0 0 0 0 0 0 0 0 0 0 0 0 0 0 0 0 0 0 0 0 0 0 0 0 0 0 0 0 0 0 0 0 0 0 0 0 0
0 0 0 0 0 0 0 0 0 0 0 0 0 0 0 0 0 0 0 0 0 0 0 0 0 0 0 0 0 0 0 0 0 0 0 0 0 0
0 0 0 0 0 0 0 0 0 0 0 0 0 0 0 0 0 0 0 0 0 0 0 0 0 0 0 0 0 0 0 0 0 0 0 0 0 0
0 0 0 0 0 0 0 0 0 0 0 0 0 0 0 0 0 0 0 0 0 0 0 0 0 0 0 0 0 0 0 0 0 0 0 0 0 0
Wind_Speed
1 1 1 2 2 2 2 2 2 3 3 2 1 1 1 1 3 3 2 5 7 7 8 8 9 9 10 10 11 11 12 12 13 13 13 14 14 14
1 1 1 2 2 2 2 2 2 2 3 2 1 1 1 2 2 2 2 5 7 8 9 9 9 10 10 10 10 11 11 12 12 13 13 13 13 13
1 1 2 2 2 2 2 2 2 1 2 3 2 1 1 1 1 2 2 3 4 8 10 10 10 10 10 10 10 10 10 11 12 13 13 13 13 12
2 2 2 2 2 2 2 2 2 2 2 3 3 2 2 2 1 2 3 3 3 5 9 10 10 10 10 10 10 10 10 10 11 12 13 13 13 12
2 2 2 2 2 2 2 2 2 2 1 2 3 2 2 2 1 2 3 2 3 3 5 8 9 9 10 10 10 10 10 11 11 11 11 11 12 12
2 2 1 1 1 2 2 2 2 2 2 2 2 2 2 2 1 2 2 2 2 3 2 3 6 9 9 9 10 10 10 11 11 10 10 10 10 11
2 1 1 1 0 0 1 1 2 2 2 2 2 2 2 2 2 2 2 2 2 2 2 2 2 3 5 8 9 10 10 10 10 10 10 9 9 10
2 2 1 1 0 1 1 1 2 2 2 2 2 2 3 3 2 3 2 2 2 2 1 2 2 2 3 4 7 10 11 11 11 10 10 10 10 10
2 2 3 2 0 1 2 2 2 3 4 3 3 3 3 3 2 3 3 2 3 2 2 3 3 3 3 3 5 8 10 11 11 11 11 10 10 10
3 3 2 1 2 2 1 1 1 2 3 4 3 4 3 3 3 3 3 3 3 3 2 3 3 3 3 2 5 8 10 11 11 11 11 11 10 10
2 2 1 1 2 1 1 2 2 3 4 3 4 5 5 6 4 2 2 2 3 3 2 2 2 2 2 3 4 8 9 10 11 11 11 11 11 9
2 1 1 0 1 1 1 2 3 4 3 4 4 5 5 6 6 5 3 3 3 3 2 2 2 1 2 2 2 3 4 7 9 10 10 10 10 6
2 1 1 1 1 2 3 3 5 5 4 3 3 3 3 3 3 4 4 4 3 3 2 2 2 1 2 2 1 2 3 3 4 5 8 9 10 9
3 2 1 2 3 5 4 5 6 5 3 3 3 2 2 2 2 3 4 5 4 4 3 2 2 2 2 2 2 2 2 3 3 4 5 7 8 9
2 2 3 5 4 4 6 6 4 3 3 3 3 3 2 3 2 2 3 3 4 4 4 3 3 2 3 3 3 2 2 2 3 3 3 4 5 5
2 3 5 6 5 4 4 3 3 2 2 2 2 2 2 2 2 2 2 2 2 2 3 3 3 3 3 3 3 3 2 2 2 2 2 3 3 4
3 3 3 2 3 3 2 2 1 1 2 2 2 2 2 2 2 2 1 2 2 2 2 2 2 2 3 2 3 3 2 2 2 2 3 3 3 4
3 3 3 3 2 2 2 2 1 1 1 2 2 2 2 2 2 2 2 2 2 2 2 2 1 1 2 2 2 3 2 2 2 2 3 3 3 3
2 3 3 2 2 2 2 2 2 1 1 2 2 2 2 2 2 2 2 2 2 2 2 2 2 2 2 3 2 2 3 3 2 2 2 3 3 3
3 3 2 2 2 2 2 2 2 2 1 2 2 2 2 3 3 2 2 2 2 3 2 2 2 2 2 3 2 3 4 4 3 2 2 2 2 2
3 2 2 2 2 2 2 2 2 2 2 2 2 2 3 3 3 3 3 3 3 3 3 3 2 3 2 1 2 2 2 3 3 3 2 2 2 2
2 2 2 2 1 2 2 2 3 2 2 2 2 2 2 2 3 3 3 3 3 3 3 3 2 1 2 2 2 2 2 1 1 2 2 3 3 3
2 2 2 2 2 1 2 3 3 3 3 2 2 2 2 2 2 2 2 2 2 3 3 3 2 2 1 1 1 1 2 2 1 0 2 3 4 4
Wind_Direction
267 277 271 285 286 272 263 252 263 284 283 276 246 230 219 179 181 197 200 194 201 210 208 206 210 214 217 219 221 221 220 218 215 214 216 219 222 225
255 275 281 282 291 301 292 272 255 258 275 294 293 268 253 254 192 190 202 198 203 209 211 209 210 212 213 215 219 219 216 215 214 212 212 215 219 221
282 274 268 272 280 291 288 286 274 271 280 295 294 302 290 269 253 238 221 215 214 212 210 210 212 214 213 214 213 214 216 216 216 216 215 215 218 219
280 277 273 273 269 275 282 286 281 267 257 286 303 309 291 274 246 245 260 253 237 215 207 209 210 211 212 214 214 215 217 217 218 216 216 215 217 219
290 273 274 280 280 287 289 287 287 290 274 271 280 276 269 263 260 266 262 260 265 250 207 207 208 208 209 212 214 215 215 215 217 216 214 213 214 216
321 318 318 301 295 309 299 304 303 304 291 280 283 286 283 273 256 255 265 249 251 266 243 209 205 209 212 212 213 216 215 214 214 213 212 211 211 213
325 335 343 352 341 263 303 321 320 308 298 289 292 298 299 311 292 277 267 260 253 248 237 238 214 206 211 217 216 217 214 211 209 209 209 208 210 211
311 307 300 268 165 161 211 258 272 269 283 286 287 290 299 303 304 290 275 268 266 245 215 258 246 229 220 210 209 206 206 206 207 208 208 207 207 209
296 295 296 304 279 227 219 240 272 266 241 241 265 274 281 288 293 298 295 285 271 267 257 256 244 243 241 236 203 204 204 204 206 208 208 207 208 209
281 273 270 315 321 335 309 290 277 272 243 231 241 258 269 273 268 262 262 268 268 269 250 249 241 240 241 234 214 206 205 205 205 206 207 207 208 211
294 315 297 270 313 334 310 290 289 288 274 260 241 252 261 261 251 264 266 264 273 269 241 235 243 242 241 235 221 210 210 209 210 208 207 208 209 209
292 314 352 9 19 25 312 292 284 285 294 284 270 260 253 252 239 223 240 255 263 274 255 239 244 238 258 234 206 200 214 219 218 216 214 211 205 203
314 333 2 47 328 290 276 266 263 279 289 277 270 263 258 252 238 221 220 234 251 258 261 258 269 262 250 266 254 211 208 215 207 214 215 212 206 200
317 338 4 323 302 290 279 271 273 283 277 276 272 269 265 261 254 244 232 226 228 239 253 248 250 241 246 263 271 258 233 222 206 204 201 201 207 210
305 300 293 283 285 282 274 275 274 269 272 280 287 287 283 274 264 250 242 236 236 238 244 232 232 231 231 241 251 256 257 239 216 206 197 195 201 197
294 291 275 263 267 273 278 267 249 243 253 267 278 288 292 292 286 270 261 249 251 250 245 237 227 223 233 243 245 255 251 233 216 203 207 218 212 208
320 282 271 262 263 257 258 246 224 233 267 280 284 293 299 301 298 298 284 263 248 254 261 258 241 224 239 240 240 244 246 242 218 204 205 226 226 218
308 289 288 288 292 302 307 301 286 272 272 281 282 286 292 297 294 295 296 291 271 254 245 240 237 268 277 266 236 234 240 245 240 225 215 220 242 236
276 282 290 308 311 312 310 309 314 302 293 289 284 282 286 290 283 282 282 284 285 285 263 235 227 240 262 278 278 236 236 239 234 232 230 227 235 235
272 289 312 325 326 324 325 319 314 322 313 306 305 308 311 310 308 306 301 297 293 291 294 281 261 242 240 257 270 276 246 235 219 221 237 247 241 230
297 311 326 336 336 332 330 326 326 317 313 311 318 327 318 312 310 310 311 311 306 300 294 284 272 265 251 231 262 282 269 232 229 214 215 227 244 242
307 321 327 327 331 333 329 322 311 302 310 311 307 304 300 298 300 305 309 306 301 298 299 299 288 282 281 248 246 252 262 261 244 259 265 237 223 225
324 324 320 325 332 323 314 321 326 327 333 327 317 304 298 300 302 302 298 295 295 296 296 300 306 298 294 298 281 263 279 279 251 276 291 287 251 233